Location: Newark
(41.7772°N, 74.7403°W)
Time: 18:41:19
(UTC+00:00)

Vanguard 2 Rocket - All Passes

Search period start: 06 June 2020 00:00
Search period end: 16 June 2020 00:00
Orbit: 556 x 3325 km, 32.9° (Epoch: 05 June)

Date Brightness Start Highest point End Pass type
(mag) Time Alt. Az. Time Alt. Az. Time Alt. Az.
06 Jun - 01:53:38 10° WSW 02:00:40 14° SW 02:08:47 10° S visible
06 Jun - 18:12:29 10° SW 18:17:12 32° SSE 18:24:27 10° E daylight
06 Jun - 20:23:33 10° WSW 20:30:10 47° S 20:41:41 10° ESE daylight
06 Jun - 22:35:55 10° W 22:44:33 37° SSW 22:58:20 10° SE daylight
07 Jun - 00:51:21 10° WSW 00:59:50 19° SSW 01:10:41 10° S visible
07 Jun - 17:14:29 10° SSW 17:18:08 22° SSE 17:23:06 10° ESE daylight
07 Jun - 19:24:52 10° WSW 19:30:29 44° S 19:39:56 10° ESE daylight
07 Jun - 21:36:44 10° WSW 21:44:15 40° SSW 21:56:48 10° SE daylight
07 Jun - 23:50:37 10° WSW 23:59:07 24° SSW 00:11:00 10° SSE daylight
08 Jun - 16:17:14 10° S 16:19:15 13° SSE 16:21:31 10° ESE daylight
08 Jun - 18:26:22 10° SW 18:31:06 37° SSE 18:38:32 10° ESE daylight
08 Jun - 20:37:48 10° WSW 20:44:15 42° S 20:55:10 10° ESE daylight
08 Jun - 22:50:41 10° WSW 22:58:36 28° SSW 23:10:29 10° SSE daylight
09 Jun - 01:10:13 10° SW 01:13:47 11° SW 01:17:41 10° SSW visible
09 Jun - 17:28:02 10° SW 17:31:57 28° SSE 17:37:28 10° ESE daylight
09 Jun - 19:39:02 10° WSW 19:44:32 41° S 19:53:41 10° ESE daylight
09 Jun - 21:51:17 10° WSW 21:58:21 32° SSW 22:09:30 10° SE daylight
10 Jun - 00:06:59 10° WSW 00:13:09 15° SSW 00:20:49 10° S daylight
10 Jun - 16:29:58 10° SSW 16:32:58 19° SSE 16:36:37 10° ESE daylight
10 Jun - 18:40:26 10° WSW 18:45:07 38° S 18:52:29 10° ESE daylight
10 Jun - 20:52:13 10° WSW 20:58:22 34° S 21:08:20 10° SE daylight
10 Jun - 23:06:10 10° WSW 23:12:42 19° SSW 23:21:35 10° SSE daylight
11 Jun - 15:32:46 10° S 15:34:02 11° SSE 15:35:21 10° SE daylight
11 Jun - 17:41:54 10° SW 17:45:54 32° SSE 17:51:36 10° ESE daylight
11 Jun - 19:53:21 10° WSW 19:58:40 35° S 20:07:11 10° SE daylight
11 Jun - 22:06:16 10° WSW 22:12:29 23° SSW 22:21:28 10° SSE daylight
12 Jun - 16:43:30 10° SW 16:46:51 24° SSE 16:51:04 10° ESE daylight
12 Jun - 18:54:38 10° WSW 18:59:12 35° S 19:06:14 10° ESE daylight
12 Jun - 21:06:55 10° WSW 21:12:32 25° SSW 21:20:57 10° SSE daylight
12 Jun - 23:24:13 10° SW 23:26:52 11° SSW 23:29:48 10° SSW daylight
13 Jun - 15:45:15 10° SSW 15:47:52 17° SSE 15:50:45 10° ESE daylight
13 Jun - 17:55:59 10° WSW 17:59:57 32° S 18:05:34 10° ESE daylight
13 Jun - 20:07:52 10° WSW 20:12:48 27° SSW 20:20:18 10° SE daylight
13 Jun - 22:22:25 10° SW 22:26:41 14° SSW 22:31:59 10° S daylight
14 Jun - 14:47:34 10° S 14:48:51 11° SSE 14:50:08 10° SE daylight
14 Jun - 16:57:22 10° SW 17:00:52 27° S 17:05:15 10° ESE daylight
14 Jun - 19:09:00 10° WSW 19:13:20 28° S 19:19:43 10° SE daylight
14 Jun - 21:22:18 10° WSW 21:26:43 17° SSW 21:32:36 10° SSE daylight
15 Jun - 15:58:44 10° SW 16:01:50 22° SSE 16:05:15 10° ESE daylight
15 Jun - 18:10:14 10° WSW 18:14:03 28° S 18:19:20 10° SE daylight
15 Jun - 20:22:49 10° WSW 20:27:00 19° SSW 20:32:44 10° SSE daylight
